[[{"header":{"parameterUnit":"m.s-1","parameterCategory":1,"la1":30.2991,"la2":30.254,"lo1":-89.0895,"lo2":-89.0444,"dy":0.0017,"dx":0.0017,"nx":28,"ny":28,"refTime":"2024-06-27T21:00:00:Z","depth":0,"parameterNumber":2,"parameterNumberName":"U-component_of_WINDS"},"data":[0,0,0,0,0,0,0,0,0,0,0,0,0,0,0,0,0,0,0,0,0,0,0,0,0,0,0,0,0,0,0,0,0,0,0,0,0,0,0,0,0,0,0,0,0,0,0,0,0,0,0,0,0,0,0,0,0,0,2.4761,2.4761,0,2.4807,2.4807,2.4808,2.4835,2.4835,2.4836,2.4836,2.4883,2.4884,2.4885,0,0,0,0,0,0,0,0,0,0,0,0,0,2.4697,2.4698,2.4761,2.4761,2.4762,2.4807,2.4807,2.4808,2.4835,2.4835,2.4836,2.4836,2.4882,2.4884,2.4885,0,0,0,0,0,0,0,0,0,0,0,0,0,2.4732,2.4699,2.4761,2.4781,2.4783,2.4806,2.4807,2.4808,2.4835,2.4835,2.4836,2.4836,2.4882,2.4883,2.4885,2.4892,0,0,2.489,2.4891,0,0,0,0,0,0,0,0,2.473,2.4734,2.4778,2.478,2.4782,2.4815,2.4802,2.4836,2.4835,2.4816,2.4836,2.4836,2.486,2.4864,2.4872,2.4894,2.4896,2.489,2.4891,2.4892,2.4893,0,0,0,0,0,0,0,2.4728,2.4733,2.4779,2.4778,2.4781,2.4788,2.4793,2.4809,2.4836,2.4817,2.4819,2.4824,2.4861,2.487,2.4873,2.4896,2.489,2.4892,2.4893,2.4894,2.4926,2.4926,0,0,0,0,0,0,2.4722,2.473,2.4778,2.478,2.4756,2.4789,2.4795,2.4805,2.4836,2.4841,2.4824,2.4826,2.4867,2.4871,2.4875,2.4884,2.4892,2.4894,2.4895,2.4926,2.4926,2.4926,0,0,0,0,0,0,2.4721,2.4726,2.4776,2.4756,2.4763,2.479,2.4801,2.4805,2.4814,2.4841,2.4846,2.4828,2.4867,2.4872,2.4887,2.4886,2.4894,2.4896,2.4926,2.4926,2.4926,2.4903,0,0,0,0,0,0,2.4719,2.4725,2.4728,2.4756,2.4764,2.4787,2.4801,2.4806,2.4817,2.4819,2.4846,2.4851,2.4868,2.4884,2.4889,2.4889,2.4897,2.4927,2.4926,2.4926,2.4904,2.4902,2.49,0,0,0,0,0,2.4716,2.472,2.4728,2.4733,2.4768,2.4787,2.4792,2.4811,2.4817,2.482,2.4837,2.485,2.4886,2.4886,2.4891,2.4891,2.4927,2.4926,2.4926,2.4905,2.4902,2.49,0,0,0,0,0,0,2.4691,2.4724,2.4733,2.4746,2.4763,2.4792,2.4796,2.4808,2.4824,2.4826,2.485,2.4855,2.4868,2.4881,2.4881,2.4899,2.4908,2.4908,2.489,2.4888,2.4886,2.4882,2.4899,0,0,0,0,0,2.4686,2.4699,2.4728,2.4736,2.4744,2.4768,2.4778,2.4791,2.4811,2.4818,2.4837,2.4855,2.487,2.488,2.4896,2.4906,2.4912,2.4909,2.4907,2.4906,2.4906,2.4912,2.4911,2.4925,2.4925,2.4925,0,0,2.4678,2.4698,2.4704,2.4731,2.4747,2.4759,2.4775,2.4787,2.4797,2.482,2.4835,2.4849,2.4871,2.4884,2.489,2.4895,2.4903,2.4905,2.4904,2.4905,2.4912,2.491,2.4909,2.4924,2.4925,2.4925,0,0,2.4669,2.4685,2.4694,2.4709,2.4732,2.4748,2.475,2.4777,2.4787,2.4802,2.482,2.4832,2.4858,2.4873,2.4884,2.4881,2.4893,2.4885,2.4876,2.4882,2.488,2.488,2.4878,2.4877,2.4885,2.4885,2.4885,0,2.4655,2.4675,2.4697,2.4709,2.472,2.4742,2.475,2.4764,2.4791,2.4798,2.4804,2.4837,2.4853,2.4869,2.4868,2.4877,2.488,2.4882,2.4879,2.4878,2.4878,2.4877,2.4876,2.4884,2.4884,2.4884,2.4885,0,2.4657,2.4671,2.4675,2.47,2.4712,2.4723,2.4746,2.4755,2.4768,2.4784,2.4799,2.482,2.484,2.4845,2.4857,2.4863,2.4865,2.4874,2.4883,2.4875,2.4874,2.4874,2.4883,2.4883,2.4883,2.4884,0,0,2.4632,2.467,2.4671,2.4683,2.471,2.4721,2.4733,2.4752,2.476,2.4778,2.4788,2.481,2.4818,2.4831,2.4845,2.4851,2.4847,2.486,2.486,2.4856,2.4854,2.4846,2.4845,2.4855,2.4855,2.4855,2.4852,0,2.4626,2.4648,2.4668,2.4682,2.4695,2.4716,2.4726,2.4744,2.4759,2.4772,2.4789,2.4803,2.4814,2.4822,2.4828,2.4846,2.4846,2.4846,2.4865,2.4865,2.4858,2.4845,2.4837,2.4832,2.4851,2.4851,2.4851,0,2.4622,2.464,2.4655,2.4681,2.4687,2.4696,2.4716,2.4728,2.4749,2.4759,2.4773,2.4789,2.4802,2.481,2.4828,2.4828,2.4837,2.4847,2.4847,2.4849,2.4857,2.4846,2.4831,2.483,2.4851,2.4851,2.4851,0,2.4602,2.4629,2.4642,2.4651,2.4682,2.4688,2.4701,2.4722,2.4733,2.475,2.4757,2.4776,2.4786,2.48,2.482,2.4825,2.4836,2.4846,2.4845,2.4845,2.4846,2.4846,2.4832,2.4853,2.4853,2.4853,2.4853,0,2.4593,2.4601,2.4633,2.4641,2.4651,2.4674,2.4684,2.4699,2.4717,2.4728,2.4748,2.4758,2.4784,2.4797,2.4813,2.4826,2.483,2.4839,2.4843,2.4837,2.4836,2.4842,2.4843,2.4853,2.4853,2.4853,2.4853,0,2.4571,2.4593,2.4608,2.4636,2.4644,2.465,2.4674,2.4683,2.4699,2.4713,2.4717,2.4743,2.476,2.4781,2.4805,2.4815,2.4826,2.4833,2.4819,2.4821,2.4818,2.4818,2.4808,2.4808,2.4829,2.4829,2.4829,0,2.4563,2.4571,2.46,2.4609,2.4621,2.4635,2.4647,2.467,2.468,2.4705,2.471,2.4728,2.4744,2.4769,2.479,2.4808,2.4815,2.481,2.4818,2.4811,2.4814,2.4813,2.4814,2.4808,2.4808,2.4807,2.4807,0,2.4547,2.4558,2.4573,2.4592,2.4605,2.4621,2.4638,2.4644,2.4671,2.4682,2.4699,2.4711,2.4735,2.4753,2.4774,2.4788,2.4802,2.4805,2.4805,2.4799,2.479,2.4794,2.4813,2.4805,2.4805,2.4805,2.4805,2.4805,2.4532,2.4539,2.4561,2.4578,2.4593,2.4608,2.4618,2.4635,2.465,2.4671,2.4685,2.4701,2.4722,2.4751,2.4765,2.4778,2.4783,2.4784,2.4785,2.4784,2.4782,2.4789,2.4782,2.4782,2.4782,2.4782,2.4782,0,2.4516,2.4532,2.4547,2.457,2.4583,2.4596,2.4615,2.4625,2.4639,2.4658,2.4673,2.4693,2.471,2.4732,2.4751,2.4758,2.4765,2.4762,2.4761,2.4764,2.4776,2.4773,2.4756,2.4756,2.4756,2.4756,2.4756,2.4756,2.451,2.4523,2.4536,2.4556,2.4572,2.4588,2.4598,2.4613,2.4628,2.4649,2.4663,2.4678,2.4698,2.4719,2.4735,2.4741,2.4747,2.4742,2.475,2.4761,2.4763,2.4765,2.4763,2.4743,2.4743,2.4736,2.4736,2.4736]},{"header":{"parameterUnit":"m.s-1","parameterCategory":1,"la1":30.2991,"la2":30.254,"lo1":-89.0895,"lo2":-89.0444,"dy":0.0017,"dx":0.0017,"nx":28,"ny":28,"refTime":"2024-06-27T21:00:00:Z","depth":0,"parameterNumber":3,"parameterNumberName":"V-component_of_WINDS"},"data":[0,0,0,0,0,0,0,0,0,0,0,0,0,0,0,0,0,0,0,0,0,0,0,0,0,0,0,0,0,0,0,0,0,0,0,0,0,0,0,0,0,0,0,0,0,0,0,0,0,0,0,0,0,0,0,0,0,0,3.2839,3.2839,0,3.2849,3.2849,3.2849,3.2849,3.2848,3.2848,3.2848,3.2856,3.2856,3.2857,0,0,0,0,0,0,0,0,0,0,0,0,0,3.2819,3.2819,3.2839,3.2839,3.284,3.2849,3.2849,3.2849,3.2849,3.2848,3.2848,3.2848,3.2856,3.2856,3.2857,0,0,0,0,0,0,0,0,0,0,0,0,0,3.2828,3.282,3.2839,3.284,3.2841,3.2849,3.2849,3.2849,3.2849,3.2848,3.2848,3.2848,3.2856,3.2856,3.2857,3.2864,0,0,3.2858,3.2859,0,0,0,0,0,0,0,0,3.2828,3.2829,3.284,3.284,3.2841,3.2847,3.2845,3.2854,3.2849,3.2846,3.2848,3.2848,3.2853,3.2854,3.2856,3.2864,3.2865,3.2858,3.2859,3.2859,3.2859,0,0,0,0,0,0,0,3.2827,3.2829,3.2843,3.284,3.2841,3.284,3.2841,3.2847,3.285,3.2846,3.2846,3.2847,3.2853,3.2856,3.2856,3.2865,3.2858,3.2859,3.2859,3.2859,3.2881,3.2881,0,0,0,0,0,0,3.2826,3.2828,3.2843,3.2843,3.2834,3.2841,3.2842,3.2845,3.285,3.2851,3.2847,3.2847,3.2855,3.2856,3.2857,3.2866,3.2859,3.2859,3.286,3.288,3.2881,3.2881,0,0,0,0,0,0,3.2826,3.2828,3.2842,3.2836,3.2838,3.2841,3.2845,3.2846,3.2848,3.2851,3.2852,3.2849,3.2855,3.2856,3.2863,3.2866,3.286,3.286,3.288,3.288,3.2881,3.2884,0,0,0,0,0,0,3.2825,3.2828,3.283,3.2836,3.2838,3.2848,3.2845,3.2846,3.2849,3.2849,3.2853,3.2854,3.2855,3.2862,3.2863,3.2867,3.286,3.288,3.288,3.2881,3.2884,3.2885,3.2886,0,0,0,0,0,3.2825,3.283,3.2831,3.2832,3.2842,3.2849,3.285,3.2851,3.2849,3.2852,3.2855,3.2854,3.2866,3.2863,3.2864,3.2868,3.2879,3.288,3.2881,3.2884,3.2885,3.2886,0,0,0,0,0,0,3.2824,3.2831,3.2831,3.2839,3.2843,3.2849,3.2852,3.2852,3.2857,3.2856,3.2858,3.2859,3.2865,3.2867,3.2864,3.2876,3.2872,3.2873,3.2874,3.2875,3.2876,3.2875,3.2861,0,0,0,0,0,3.2825,3.2831,3.2836,3.2842,3.2845,3.2848,3.2851,3.2852,3.2857,3.2858,3.2861,3.2865,3.287,3.2872,3.2877,3.2885,3.2886,3.2888,3.2889,3.289,3.289,3.2895,3.2896,3.2883,3.2883,3.2883,0,0,3.2827,3.2831,3.2834,3.2842,3.2846,3.2852,3.285,3.2855,3.2859,3.2859,3.2866,3.2868,3.2872,3.288,3.2883,3.2881,3.2894,3.289,3.2891,3.2891,3.2896,3.2897,3.2898,3.2883,3.2883,3.2883,0,0,3.2832,3.2836,3.2843,3.2847,3.2853,3.2855,3.2857,3.2862,3.2864,3.2871,3.2871,3.2876,3.2884,3.2887,3.289,3.2899,3.2899,3.2901,3.2905,3.291,3.2911,3.2912,3.2915,3.2917,3.2901,3.2901,3.2901,0,3.2833,3.2842,3.2845,3.2852,3.2855,3.2857,3.2863,3.2866,3.2873,3.2876,3.2874,3.2885,3.2888,3.2897,3.2899,3.2901,3.2903,3.29,3.2911,3.2912,3.2912,3.2916,3.2917,3.2902,3.2902,3.2902,3.2902,0,3.2844,3.285,3.2854,3.2862,3.2866,3.2872,3.2876,3.288,3.2882,3.2884,3.2892,3.2896,3.2902,3.2904,3.2904,3.2913,3.2912,3.291,3.2907,3.2914,3.2917,3.2919,3.2902,3.2902,3.2902,3.2902,0,0,3.2848,3.2859,3.286,3.2865,3.2872,3.2877,3.2883,3.289,3.2894,3.2899,3.2904,3.2912,3.2911,3.2914,3.2915,3.292,3.2927,3.2918,3.2918,3.292,3.2938,3.2939,3.294,3.2927,3.2928,3.2928,3.2937,0,3.2855,3.2867,3.2871,3.2881,3.2887,3.2889,3.2895,3.29,3.2903,3.2909,3.2912,3.2918,3.2916,3.2918,3.2922,3.2926,3.2931,3.2925,3.2932,3.2932,3.2931,3.2942,3.2943,3.2952,3.2939,3.2939,3.2939,0,3.2864,3.2871,3.2882,3.289,3.2893,3.2898,3.2905,3.291,3.2917,3.2919,3.2923,3.2924,3.2931,3.2928,3.2938,3.2933,3.2937,3.2939,3.2939,3.294,3.2936,3.2943,3.2954,3.2956,3.2941,3.2941,3.2941,0,3.2867,3.2878,3.2887,3.289,3.29,3.2904,3.2908,3.2914,3.2918,3.2924,3.2927,3.2933,3.2937,3.2942,3.2945,3.2942,3.2954,3.2951,3.2956,3.2956,3.2958,3.2958,3.297,3.296,3.296,3.296,3.296,0,3.2874,3.2881,3.2889,3.2894,3.2902,3.2906,3.2914,3.2918,3.2923,3.2929,3.2931,3.2937,3.294,3.2946,3.2949,3.2957,3.2958,3.296,3.296,3.296,3.2959,3.2961,3.2961,3.2961,3.2961,3.2961,3.296,0,3.2878,3.2883,3.2893,3.2902,3.2904,3.291,3.2917,3.2922,3.2926,3.2934,3.2936,3.2941,3.2948,3.2952,3.2961,3.2962,3.2972,3.2972,3.297,3.297,3.2975,3.2974,3.2989,3.2991,3.298,3.298,3.298,0,3.2882,3.2887,3.2897,3.2902,3.2907,3.2914,3.2919,3.2924,3.2928,3.2937,3.2941,3.2949,3.2955,3.2967,3.2971,3.2978,3.2978,3.2983,3.2979,3.2979,3.2979,3.2978,3.2979,3.2983,3.2984,3.2984,3.2984,0,3.2888,3.2892,3.2899,3.2908,3.2914,3.2921,3.2927,3.2931,3.2937,3.2942,3.2951,3.2956,3.2965,3.2973,3.2981,3.2984,3.2985,3.2985,3.2987,3.2986,3.2985,3.2986,3.2972,3.2985,3.2985,3.2984,3.2984,3.2984,3.2893,3.2898,3.2907,3.2915,3.2921,3.2928,3.2934,3.2939,3.2946,3.2955,3.2957,3.2966,3.2973,3.2984,3.2988,3.2994,3.2993,3.2995,3.2996,3.2996,3.2997,3.2984,3.2996,3.2996,3.2996,3.2996,3.2996,0,3.29,3.2906,3.2914,3.2924,3.2931,3.2933,3.294,3.2946,3.2954,3.2961,3.2968,3.2977,3.2985,3.2991,3.2999,3.3003,3.3004,3.3005,3.3005,3.3006,3.2997,3.2995,3.3005,3.3005,3.3005,3.3005,3.3005,3.3005,3.2904,3.2914,3.2919,3.2932,3.2937,3.2947,3.2951,3.2957,3.2963,3.2974,3.2981,3.2986,3.2992,3.3001,3.3008,3.301,3.3013,3.3014,3.3016,3.3007,3.3006,3.3005,3.3003,3.3015,3.3015,3.3024,3.3024,3.3024]}]]